Location: Eindhoven
(51.4416°N, 5.4697°E)
Time: 14:22:53
(UTC+01:00)

deb Explorer IX - Pass Details

Date: 22 November 2019
Orbit: 546 x 1104 km, 38.8° (Epoch: 14 December)

Event Time Altitude Azimuth Distance (km) Brightness Sun altitude
Rises 02:05:13 0° 240° (WSW) 3,749 - -52.9°
Reaches altitude 10° 02:08:31 10° 228° (SW) 2,715 - -52.5°
Maximum altitude 02:13:33 24° 177° (S) 1,765 - -52.0°
Drops below altitude 10° 02:18:04 10° 125° (SE) 2,409 - -51.5°
Sets 02:20:49 0° 112° (ESE) 3,239 - -51.2°
